Radioactive Concentration measured by Seawater Radiation Monitor near Fukushima Daiichi Nuclear Power Station
Date,Time,Cs137(Bq/L),Cs134(Bq/L),Total β(Bq/L)
2017/11/14,00:00,0.52,ND,ND
2017/11/14,00:10,0.51,ND,ND
2017/11/14,00:20,0.51,ND,ND
2017/11/14,00:30,0.52,ND,ND
2017/11/14,00:40,0.51,ND,ND
2017/11/14,00:50,0.50,ND,ND
2017/11/14,01:00,0.51,ND,ND
2017/11/14,01:10,0.53,ND,ND
2017/11/14,01:20,0.55,ND,ND
2017/11/14,01:30,0.54,ND,ND
2017/11/14,01:40,0.56,ND,ND
2017/11/14,01:50,0.59,ND,ND
2017/11/14,02:00,0.60,ND,ND
2017/11/14,02:10,0.62,ND,ND
2017/11/14,02:20,0.60,ND,10
2017/11/14,02:30,0.64,ND,11
2017/11/14,02:40,0.64,ND,12
2017/11/14,02:50,0.64,ND,12
2017/11/14,03:00,0.62,ND,13
2017/11/14,03:10,0.59,ND,ND
2017/11/14,03:20,0.61,ND,ND
2017/11/14,03:30,0.59,ND,ND
2017/11/14,03:40,0.55,ND,ND
2017/11/14,03:50,0.55,ND,ND
2017/11/14,04:00,0.56,ND,ND
2017/11/14,04:10,0.57,ND,ND
2017/11/14,04:20,0.56,ND,ND
2017/11/14,04:30,0.58,ND,ND
2017/11/14,04:40,0.60,ND,ND
2017/11/14,04:50,0.59,ND,ND
2017/11/14,05:00,0.60,ND,ND
2017/11/14,05:10,0.59,ND,ND
2017/11/14,05:20,0.61,ND,ND
2017/11/14,05:30,0.61,ND,ND
2017/11/14,05:40,0.60,ND,ND
2017/11/14,05:50,0.59,ND,ND
2017/11/14,06:00,0.58,ND,ND
2017/11/14,06:10,0.59,ND,ND
2017/11/14,06:20,0.58,ND,ND
2017/11/14,06:30,0.56,ND,ND
2017/11/14,06:40,0.57,ND,ND
2017/11/14,06:50,0.56,ND,ND
2017/11/14,07:00,0.55,ND,ND
2017/11/14,07:10,0.54,ND,ND
2017/11/14,07:20,0.56,ND,ND
2017/11/14,07:30,0.57,ND,ND
2017/11/14,07:40,0.56,ND,ND
2017/11/14,07:50,0.56,ND,ND
2017/11/14,08:00,0.57,ND,ND
2017/11/14,08:10,0.56,ND,ND
2017/11/14,08:20,0.54,ND,ND
2017/11/14,08:30,0.51,ND,8.9
2017/11/14,08:40,0.51,ND,10
2017/11/14,08:50,0.51,ND,11
2017/11/14,09:00,0.52,ND,11
2017/11/14,09:10,0.51,ND,10
2017/11/14,09:20,0.50,ND,ND
2017/11/14,09:30,0.52,ND,ND
2017/11/14,09:40,0.52,ND,ND
2017/11/14,09:50,0.51,ND,ND
2017/11/14,10:00,0.51,ND,ND
2017/11/14,10:10,0.52,ND,ND
2017/11/14,10:20,0.52,ND,ND
2017/11/14,10:30,0.52,ND,ND
2017/11/14,10:40,0.51,ND,ND
2017/11/14,10:50,0.51,ND,ND
2017/11/14,11:00,0.52,ND,ND
2017/11/14,11:10,0.51,ND,ND
2017/11/14,11:20,0.51,ND,ND
2017/11/14,11:30,0.52,ND,ND
2017/11/14,11:40,0.52,ND,ND
2017/11/14,11:50,0.53,ND,ND
2017/11/14,12:00,0.52,ND,ND
2017/11/14,12:10,0.54,ND,ND
2017/11/14,12:20,0.54,ND,ND
2017/11/14,12:30,0.55,ND,ND
2017/11/14,12:40,0.54,ND,ND
2017/11/14,12:50,0.53,ND,ND
2017/11/14,13:00,0.55,ND,ND
2017/11/14,13:10,0.55,ND,9.3
2017/11/14,13:20,0.54,ND,12
2017/11/14,13:30,0.52,ND,ND
2017/11/14,13:40,0.55,ND,8.9
2017/11/14,13:50,0.53,ND,ND
2017/11/14,14:00,0.52,ND,ND
2017/11/14,14:10,0.52,ND,ND
2017/11/14,14:20,0.55,ND,ND
2017/11/14,14:30,0.56,ND,ND
2017/11/14,14:40,0.56,ND,ND
2017/11/14,14:50,0.59,ND,ND
2017/11/14,15:00,0.62,ND,ND
2017/11/14,15:10,0.63,ND,ND
2017/11/14,15:20,0.65,ND,ND
2017/11/14,15:30,0.69,ND,ND
2017/11/14,15:40,0.67,0.029,ND
2017/11/14,15:50,0.68,0.051,ND
2017/11/14,16:00,0.70,0.044,ND
2017/11/14,16:10,0.71,0.042,ND
2017/11/14,16:20,0.68,0.049,ND
2017/11/14,16:30,0.69,0.051,ND
2017/11/14,16:40,0.69,0.039,ND
2017/11/14,16:50,0.69,0.034,ND
2017/11/14,17:00,0.70,0.033,ND
2017/11/14,17:10,0.69,0.043,ND
2017/11/14,17:20,0.68,0.049,ND
2017/11/14,17:30,0.66,0.060,ND
2017/11/14,17:40,0.63,0.047,ND
2017/11/14,17:50,0.62,0.050,ND
2017/11/14,18:00,0.61,0.044,ND
2017/11/14,18:10,0.60,0.033,ND
2017/11/14,18:20,0.58,0.026,ND
2017/11/14,18:30,0.58,0.027,ND
2017/11/14,18:40,0.62,ND,ND
2017/11/14,18:50,0.57,0.030,ND
2017/11/14,19:00,0.60,ND,ND
2017/11/14,19:10,0.59,ND,ND
2017/11/14,19:20,0.60,ND,ND
2017/11/14,19:30,0.58,ND,ND
2017/11/14,19:40,0.58,ND,ND
2017/11/14,19:50,0.57,ND,ND
2017/11/14,20:00,0.56,ND,ND
2017/11/14,20:10,0.57,ND,ND
2017/11/14,20:20,0.57,ND,ND
2017/11/14,20:30,0.57,ND,ND
2017/11/14,20:40,0.57,ND,ND
2017/11/14,20:50,0.56,ND,ND
2017/11/14,21:00,0.57,ND,ND
2017/11/14,21:10,0.58,ND,ND
2017/11/14,21:20,0.58,ND,ND
2017/11/14,21:30,0.59,ND,ND
2017/11/14,21:40,0.57,ND,ND
2017/11/14,21:50,0.57,ND,ND
2017/11/14,22:00,0.56,ND,ND
2017/11/14,22:10,0.57,ND,ND
2017/11/14,22:20,0.56,ND,ND
2017/11/14,22:30,0.56,ND,9.7
2017/11/14,22:40,0.56,ND,11
2017/11/14,22:50,0.55,ND,13
2017/11/14,23:00,0.55,ND,ND
2017/11/14,23:10,0.55,ND,ND
2017/11/14,23:20,0.55,ND,ND
2017/11/14,23:30,0.56,ND,ND
2017/11/14,23:40,0.55,ND,ND
2017/11/14,23:50,0.54,ND,ND
